TimeEST,TemperatureF,Dew PointF,Humidity,Sea Level PressureIn,VisibilityMPH,Wind Direction,Wind SpeedMPH,Gust SpeedMPH,PrecipitationIn,Events,Conditions,WindDirDegrees,DateUTC
12:53 AM,7.0,3.9,87,30.25,2.5,Calm,Calm,-,N/A,,Clear,0,2013-01-03 05:53:00
1:07 AM,6.8,3.2,85,30.21,4.0,Calm,Calm,-,N/A,,Clear,0,2013-01-03 06:07:00
1:53 AM,6.1,1.9,83,30.25,4.0,Calm,Calm,-,N/A,,Clear,0,2013-01-03 06:53:00
2:53 AM,6.1,1.9,83,30.26,4.0,Calm,Calm,-,N/A,,Clear,0,2013-01-03 07:53:00
3:20 AM,5.0,1.4,85,30.21,4.0,Calm,Calm,-,N/A,,Partly Cloudy,0,2013-01-03 08:20:00
3:53 AM,5.0,-0.0,80,30.25,6.0,Calm,Calm,-,N/A,,Haze,0,2013-01-03 08:53:00
4:53 AM,5.0,1.0,84,30.24,6.0,Calm,Calm,-,N/A,,Clear,0,2013-01-03 09:53:00
5:53 AM,1.0,-2.9,83,30.26,5.0,Calm,Calm,-,N/A,,Clear,0,2013-01-03 10:53:00
7:53 AM,1.9,-2.9,80,30.29,4.0,Calm,Calm,-,N/A,,Haze,0,2013-01-03 12:53:00
8:53 AM,3.9,1.9,91,30.28,5.0,Calm,Calm,-,N/A,,Clear,0,2013-01-03 13:53:00
9:53 AM,18.0,15.1,88,30.27,5.0,South,3.5,-,N/A,,Clear,190,2013-01-03 14:53:00
10:53 AM,25.0,14.0,63,30.27,10.0,SW,4.6,-,N/A,,Clear,220,2013-01-03 15:53:00
11:53 AM,28.0,12.9,53,30.25,10.0,West,6.9,-,N/A,,Clear,260,2013-01-03 16:53:00
12:53 PM,28.0,14.0,56,30.24,10.0,WSW,8.1,-,N/A,,Clear,250,2013-01-03 17:53:00
1:53 PM,30.0,15.1,54,30.22,10.0,WSW,9.2,-,N/A,,Clear,250,2013-01-03 18:53:00
2:53 PM,30.9,16.0,54,30.23,10.0,West,9.2,-,N/A,,Clear,260,2013-01-03 19:53:00
3:53 PM,30.9,17.1,57,30.25,10.0,West,9.2,-,N/A,,Mostly Cloudy,260,2013-01-03 20:53:00
4:53 PM,30.0,18.0,61,30.27,10.0,West,9.2,18.4,N/A,,Overcast,270,2013-01-03 21:53:00
5:53 PM,28.9,19.0,67,30.28,10.0,West,8.1,-,N/A,,Overcast,270,2013-01-03 22:53:00
6:53 PM,28.9,19.9,69,30.30,10.0,West,6.9,-,N/A,,Overcast,260,2013-01-03 23:53:00
7:53 PM,28.9,19.9,69,30.31,10.0,West,8.1,-,N/A,,Overcast,270,2013-01-04 00:53:00
8:53 PM,28.9,19.9,69,30.31,10.0,West,8.1,-,N/A,,Overcast,270,2013-01-04 01:53:00
9:53 PM,28.9,19.9,69,30.31,10.0,West,5.8,-,N/A,,Overcast,280,2013-01-04 02:53:00
10:06 PM,28.4,19.4,69,30.28,10.0,WNW,9.2,-,N/A,,Overcast,290,2013-01-04 03:06:00
10:53 PM,30.0,19.0,64,30.32,10.0,WNW,10.4,18.4,N/A,,Overcast,300,2013-01-04 03:53:00
11:53 PM,28.9,19.9,69,30.30,10.0,West,9.2,-,N/A,,Overcast,280,2013-01-04 04:53:00